SCP
-0 -0 -0 -0 -0 -0 -0 -0 -0 -0 -0 -0 -0 0 0 0 0 0 0 0 0 0 0 0 0 0 0 0 0 0 0 0 0 0 0 0 0 0 0 0 0 -0 0
-0 -0 -0 -0 -0 -0 -0 -0 -0 -0 -0 -0 0 0 0 0 0 0 0 0 0 0 0 0 0 0 0 0 0 0 0 0 0 0 0 0 0 0 0 -0 -0 0 0
-0 -0 -0 -0 -0 -0 -0 -0 -0 -0 -0 -0 0 0 0 0 0 0 0 0 0 0 0 0 0 0 0 0 0 0 0 0 -0 -0 -0 -0 0 0 0 0 0 0 0
-0 -0 -0 -0 -0 -0 -0 -0 -0 -0 -0 0 0 0 0 0 0 0 0 0 0 0 0 0 1 0 0 0 0 0 0 -0 -0 -0 -0 0 0 0 0 0 0 0 0
-0 -0 -0 -0 -0 -0 -0 -0 -0 -0 -0 0 0 0 0 0 0 0 0 0 0 0 0 0 0 1 1 1 1 0 0 -0 -0 -0 0 0 0 0 0 0 0 0 0
-0 -0 -0 -0 -0 -0 -0 -0 -0 0 0 0 0 0 0 0 0 0 0 0 0 0 0 0 0 0 0 1 1 0 0 -0 -0 0 0 0 0 0 0 0 0 0 0
-0 -0 -0 -0 -0 -0 -0 -0 -0 0 0 0 0 0 0 0 0 0 0 0 0 0 0 0 0 0 0 0 0 0 0 0 0 0 0 0 0 0 0 0 0 0 0
-0 -0 0 -0 -0 -0 -0 0 0 0 0 0 0 0 0 0 0 0 0 0 0 0 0 0 0 0 0 0 0 0 0 0 0 0 0 0 0 0 0 0 0 0 0
0 0 0 0 0 0 0 0 0 0 0 0 0 0 0 0 0 0 0 0 0 0 0 0 0 0 0 0 0 0 0 0 0 0 0 0 0 0 0 0 0 0 0
-0 -0 0 0 0 0 0 0 0 0 0 0 0 0 0 0 0 0 0 0 0 0 1 0 0 0 0 0 0 0 0 0 0 0 0 0 0 0 0 0 0 0 0
0 0 0 0 0 0 0 0 0 0 0 0 0 0 0 0 0 0 0 0 0 0 0 0 0 0 0 0 0 0 0 0 -0 0 0 0 0 0 0 0 0 0 0
0 0 0 0 0 -0 -0 -0 -0 0 0 0 0 0 0 0 0 0 0 0 0 0 0 0 0 0 0 0 0 0 0 0 0 0 0 0 0 0 0 0 0 0 0
0 0 0 0 0 0 0 0 0 0 0 0 0 0 0 0 0 0 0 0 0 0 0 0 1 1 1 1 1 0 0 0 0 0 0 0 0 0 0 0 0 0 0
0 0 0 0 0 0 0 0 0 0 0 0 0 0 0 0 0 0 0 0 0 0 0 0 0 0 0 0 0 0 0 1 0 0 0 0 0 0 0 0 0 0 0
0 0 0 0 0 0 0 0 0 0 0 0 0 0 0 0 0 0 0 0 0 0 0 0 0 0 0 0 0 0 0 0 0 0 0 0 0 0 0 0 0 0 0
0 0 0 0 0 0 0 0 0 0 0 0 0 0 0 0 0 0 0 0 0 0 0 0 0 0 0 0 0 0 0 0 0 0 0 0 0 0 0 0 0 0 0
0 0 0 0 0 0 0 0 0 0 0 0 0 0 0 0 0 0 0 0 0 0 0 0 0 0 0 0 0 0 0 0 0 0 0 0 0 0 0 0 0 0 0
0 0 0 0 0 0 0 0 0 0 0 0 0 0 0 0 0 0 0 0 0 0 0 0 0 0 0 0 0 0 0 0 0 0 0 0 0 0 -0 -0 0 0 0
0 0 0 0 0 0 0 0 0 0 0 0 0 0 0 0 0 0 0 0 0 0 0 0 0 0 0 0 0 0 0 0 0 0 0 0 0 0 0 0 0 0 0
0 0 0 0 0 0 0 0 0 0 0 0 0 0 0 0 0 0 0 0 0 0 0 0 0 0 0 0 0 0 0 0 0 0 0 0 0 0 1 1 0 0 0
0 0 0 0 0 0 0 0 0 0 0 0 0 0 0 0 0 0 0 0 0 0 0 0 0 0 0 0 0 0 0 0 1 0 0 -0 0 0 1 0 0 0 0
0 0 0 0 0 0 0 0 0 -0 0 0 0 0 0 -0 -0 -0 -0 0 0 0 0 0 0 0 0 0 0 0 0 0 0 0 0 0 -0 0 1 0 0 0 0
0 0 0 0 0 0 0 0 0 0 0 0 0 0 0 -0 -0 -0 0 0 -0 0 0 0 0 0 0 0 0 0 0 0 0 0 0 0 1 0 0 0 0 0 -0
0 0 0 0 0 0 0 0 0 0 0 0 0 0 0 0 0 0 0 -0 0 0 0 0 0 0 0 0 0 0 0 0 0 0 1 1 1 0 0 0 0 0 0
0 0 0 0 0 0 0 0 0 0 0 0 0 0 -0 0 0 0 0 -0 -0 0 0 0 0 0 0 0 0 0 0 0 0 0 0 0 0 0 0 0 0 0 0
0 0 0 0 0 0 0 0 0 0 0 0 0 0 0 0 0 -0 0 -0 -0 0 -0 -0 0 0 0 0 0 0 0 0 0 0 0 0 0 0 0 0 -0 0 0
Wind_Speed_500mb
23 17 18 15 12 11 12 12 9 6 3 0 3 4 4 4 3 3 3 4 4 4 5 6 8 8 9 10 12 14 15 17 19 21 20 19 23 25 26 29 26 19 20
22 16 20 19 15 9 7 8 7 5 3 3 4 4 2 2 2 2 3 4 6 6 6 7 8 9 8 11 16 17 17 20 22 18 21 15 17 20 22 24 16 20 16
20 19 19 18 16 14 9 5 4 4 4 3 4 4 5 5 6 6 6 6 7 7 8 10 8 9 11 16 14 14 18 18 27 28 24 21 13 13 11 8 8 9 9
23 21 20 18 16 14 12 9 6 5 5 5 5 4 3 4 5 6 6 6 6 7 7 8 9 13 16 14 11 14 17 23 27 22 13 11 13 13 11 10 8 5 5
28 22 21 19 18 16 15 14 14 12 8 5 7 10 7 7 8 7 6 5 5 6 7 10 12 16 13 12 10 13 15 20 26 19 13 12 8 12 11 9 12 8 11
27 27 21 19 17 18 19 18 15 13 12 9 7 2 4 5 8 9 8 5 3 4 6 8 10 14 14 11 11 11 10 18 19 3 8 14 10 7 9 9 5 2 2
28 29 25 19 18 17 16 15 12 9 8 9 8 4 5 5 7 9 9 8 6 5 2 3 6 8 11 12 11 9 9 13 8 8 4 6 1 5 6 5 4 4 2
24 23 27 24 21 18 17 16 14 9 6 5 5 6 6 8 11 13 15 15 14 13 11 11 9 7 7 8 10 10 9 11 11 7 5 16 8 4 6 9 9 9 6
30 30 30 33 37 28 23 22 19 16 12 9 7 8 10 14 16 17 21 23 23 23 21 21 20 17 16 14 14 13 12 11 9 15 9 14 14 10 11 10 9 6 4
28 28 27 17 20 23 23 23 20 16 14 14 15 13 9 17 18 14 26 24 27 31 30 30 30 26 24 23 22 20 17 15 15 16 13 28 22 12 12 10 6 4 3
32 30 24 22 21 22 24 28 26 24 24 23 20 17 16 16 16 12 19 31 33 30 32 36 35 32 31 27 25 28 23 15 21 19 25 28 27 14 11 5 1 0 1
29 27 27 29 34 37 36 36 36 30 25 29 31 32 31 26 27 28 32 33 32 32 32 35 38 36 32 21 21 13 18 21 19 14 24 28 26 21 13 10 8 6 5
30 26 26 26 25 22 21 22 20 23 25 24 27 30 24 24 23 22 24 18 21 30 22 19 15 24 29 40 36 26 32 19 19 21 35 28 29 25 17 16 13 10 9
22 23 21 21 24 27 23 25 26 26 28 29 30 31 29 24 23 25 25 23 25 19 23 26 33 37 44 44 43 43 43 42 44 34 38 38 36 25 19 23 19 15 14
21 20 19 21 24 25 26 29 30 30 31 34 32 32 33 25 28 32 24 24 27 28 24 21 18 19 24 33 39 55 64 70 58 53 66 38 37 34 29 28 30 23 20
17 19 18 21 26 30 32 36 36 34 36 37 36 35 32 28 27 29 33 25 30 30 29 21 20 26 29 30 29 35 36 39 48 47 46 38 49 21 32 35 47 31 25
13 17 21 21 27 32 34 40 37 38 36 36 32 30 28 31 32 29 27 33 33 38 28 35 34 30 34 33 36 37 32 31 31 39 53 63 69 53 63 58 46 38 33
13 18 21 25 28 33 34 39 38 38 34 30 29 25 39 38 31 34 36 31 31 36 28 27 33 31 37 37 37 36 36 31 27 31 37 45 47 46 44 49 43 43 39
16 19 20 25 26 33 35 37 36 31 28 28 29 26 27 35 35 36 29 32 42 33 31 36 39 35 41 33 37 39 41 39 38 34 35 35 41 38 38 39 47 41 41
15 19 21 23 30 37 33 31 28 27 27 26 26 37 48 38 31 35 34 34 38 30 27 33 31 26 34 36 35 40 35 38 33 40 37 43 35 40 45 48 45 38 39
15 17 24 27 32 32 30 30 29 29 27 24 30 26 45 37 30 29 30 34 33 30 29 29 27 31 27 31 31 34 35 42 37 33 38 44 40 36 51 44 36 43 44
13 19 23 27 32 28 27 30 33 26 24 18 29 33 30 27 28 29 29 30 28 32 31 32 27 28 30 31 27 26 32 34 34 39 38 35 44 39 42 39 38 43 43
14 17 23 25 27 26 31 28 31 26 20 30 24 27 31 26 30 28 28 28 30 31 28 30 27 26 26 23 25 23 16 15 25 32 31 34 38 49 41 40 35 35 27
11 17 21 22 32 22 31 28 30 28 28 23 24 27 30 30 28 32 26 24 19 19 20 22 20 20 20 20 21 24 26 21 11 13 20 17 19 28 33 37 36 34 27
13 20 20 20 26 27 25 27 25 27 23 23 27 28 31 30 33 28 28 27 23 19 19 17 18 19 19 16 16 13 13 18 22 15 19 24 30 39 41 32 30 22 20
16 21 23 17 28 30 25 23 23 25 24 23 23 22 31 30 36 31 28 34 26 25 22 20 19 16 15 9 11 6 4 9 14 18 18 32 28 32 20 31 20 18 17
Wind_Direction_500mb
102 116 119 104 95 101 113 124 128 135 139 155 317 311 300 297 312 337 353 13 42 61 77 93 96 91 95 101 111 119 117 112 102 92 77 83 96 98 98 98 80 90 90
101 102 114 113 100 95 113 116 114 108 62 5 342 335 355 28 50 64 75 85 86 87 93 96 96 98 111 117 119 110 109 103 95 85 83 77 104 103 114 122 121 97 101
98 101 91 95 99 107 105 99 62 27 16 23 18 17 24 51 85 96 83 74 77 86 98 110 111 104 121 130 123 107 105 92 89 77 74 94 82 94 107 117 88 78 89
83 85 87 85 85 82 81 96 93 59 25 18 34 65 106 137 134 122 111 100 96 92 100 113 118 117 131 136 132 118 105 92 96 84 71 102 71 84 80 78 66 63 62
78 77 80 76 71 67 63 54 43 40 38 39 64 72 91 148 165 167 153 146 127 108 102 111 131 140 150 154 152 137 116 98 94 61 118 99 118 77 74 79 71 78 118
78 73 80 70 66 64 70 68 70 55 48 27 10 47 92 157 181 184 188 188 174 137 118 124 130 158 166 165 175 159 134 110 99 91 83 157 138 64 79 85 88 71 220
80 80 78 71 64 64 61 66 73 78 61 55 44 345 303 261 239 227 225 225 224 240 236 162 154 166 183 202 207 199 176 138 111 206 194 164 208 48 32 38 33 25 352
79 70 71 64 51 49 58 52 44 36 33 15 350 349 330 279 264 264 260 256 252 255 256 264 255 237 227 230 232 230 213 179 136 214 223 231 293 5 5 5 1 358 346
71 62 55 64 47 34 45 37 32 28 13 4 359 345 335 330 314 289 275 268 268 266 266 264 263 263 258 255 257 251 239 221 208 246 225 244 267 319 338 348 356 359 356
66 67 67 68 71 69 40 38 22 11 4 2 347 340 348 355 345 315 310 279 270 269 270 270 272 272 270 267 265 262 254 241 230 263 248 244 272 312 333 341 360 22 55
63 58 57 49 46 36 29 26 13 10 5 356 338 320 297 267 270 289 296 276 273 276 272 272 270 273 272 275 284 265 254 258 263 265 264 248 262 292 309 306 320 345 131
63 56 53 49 34 25 28 22 21 10 4 3 0 353 344 325 301 286 269 283 285 278 274 270 268 265 268 269 286 299 265 250 266 275 299 264 274 278 272 268 262 249 235
72 67 54 41 37 41 12 14 357 352 348 345 341 342 335 318 313 325 322 300 293 283 283 271 253 250 229 228 233 252 244 255 250 269 265 260 265 262 256 256 254 251 230
65 62 53 40 34 23 19 5 357 344 344 336 333 336 329 320 298 293 286 282 292 292 300 302 276 266 258 247 244 248 249 242 236 244 243 234 225 218 244 246 244 238 219
63 58 42 27 22 12 4 357 349 340 332 333 327 325 325 322 298 266 264 281 280 280 281 278 283 293 302 288 276 263 263 257 254 262 244 221 231 231 224 235 232 234 219
48 35 23 12 9 5 356 349 342 331 327 324 322 318 324 318 310 309 270 277 277 273 254 254 272 286 286 283 282 289 292 276 259 241 241 248 246 269 281 251 225 216 217
26 14 8 357 352 349 347 338 334 326 320 323 320 326 313 297 305 300 297 293 278 269 268 276 279 278 280 276 272 262 266 270 268 254 246 242 250 266 250 266 260 239 225
2 4 356 348 344 339 335 333 327 323 328 326 324 313 310 307 304 302 293 275 286 273 262 259 269 275 277 274 271 269 266 251 256 250 247 245 239 234 240 235 234 233 212
9 5 0 352 341 335 335 333 335 330 330 327 325 323 315 317 311 291 290 291 275 269 264 273 269 267 270 271 270 264 256 241 257 258 242 251 228 219 226 239 228 225 210
18 8 1 347 337 344 341 338 338 337 333 331 320 317 315 314 308 306 298 297 297 293 280 273 274 272 277 267 279 271 265 241 239 234 234 238 234 225 224 227 222 205 197
19 6 354 348 341 352 350 346 340 335 331 329 332 330 328 327 326 313 304 293 297 301 298 290 276 279 273 267 272 268 257 254 238 233 245 217 228 224 220 220 203 194 188
10 360 352 348 345 351 351 347 337 327 334 337 331 330 335 331 330 316 304 296 289 284 284 276 282 273 276 266 271 274 267 257 233 224 238 220 215 212 221 209 189 190 180
360 358 352 349 347 347 349 347 347 356 341 341 339 342 338 340 341 335 319 303 293 290 282 284 291 284 280 275 271 260 267 240 229 221 213 208 212 218 205 185 189 178 168
360 353 349 348 350 347 348 355 354 352 346 339 339 339 354 335 345 350 345 340 314 302 284 294 302 297 291 286 279 269 245 263 234 191 205 200 199 191 173 166 177 171 176
1 355 350 353 347 347 353 353 357 351 347 342 349 347 337 350 356 356 354 346 342 334 326 320 326 313 305 291 295 291 266 250 266 244 180 169 173 169 165 176 157 167 186
355 354 351 355 341 350 354 342 353 351 349 345 343 348 345 353 356 357 9 13 9 346 322 319 321 335 321 302 314 282 320 242 248 245 193 171 151 153 161 174 173 220 173
Wind_Speed_850mb
23 17 18 15 12 11 12 12 9 6 3 0 3 4 4 4 3 3 3 4 4 4 5 6 8 8 9 10 12 14 15 17 19 21 20 19 23 25 26 29 26 19 20
22 16 20 19 15 9 7 8 7 5 3 3 4 4 2 2 2 2 3 4 6 6 6 7 8 9 8 11 16 17 17 20 22 18 21 15 17 20 22 24 16 20 16
20 19 19 18 16 14 9 5 4 4 4 3 4 4 5 5 6 6 6 6 7 7 8 10 8 9 11 16 14 14 18 18 27 28 24 21 13 13 11 8 8 9 9
23 21 20 18 16 14 12 9 6 5 5 5 5 4 3 4 5 6 6 6 6 7 7 8 9 13 16 14 11 14 17 23 27 22 13 11 13 13 11 10 8 5 5
28 22 21 19 18 16 15 14 14 12 8 5 7 10 7 7 8 7 6 5 5 6 7 10 12 16 13 12 10 13 15 20 26 19 13 12 8 12 11 9 12 8 11
27 27 21 19 17 18 19 18 15 13 12 9 7 2 4 5 8 9 8 5 3 4 6 8 10 14 14 11 11 11 10 18 19 3 8 14 10 7 9 9 5 2 2
28 29 25 19 18 17 16 15 12 9 8 9 8 4 5 5 7 9 9 8 6 5 2 3 6 8 11 12 11 9 9 13 8 8 4 6 1 5 6 5 4 4 2
24 23 27 24 21 18 17 16 14 9 6 5 5 6 6 8 11 13 15 15 14 13 11 11 9 7 7 8 10 10 9 11 11 7 5 16 8 4 6 9 9 9 6
30 30 30 33 37 28 23 22 19 16 12 9 7 8 10 14 16 17 21 23 23 23 21 21 20 17 16 14 14 13 12 11 9 15 9 14 14 10 11 10 9 6 4
28 28 27 17 20 23 23 23 20 16 14 14 15 13 9 17 18 14 26 24 27 31 30 30 30 26 24 23 22 20 17 15 15 16 13 28 22 12 12 10 6 4 3
32 30 24 22 21 22 24 28 26 24 24 23 20 17 16 16 16 12 19 31 33 30 32 36 35 32 31 27 25 28 23 15 21 19 25 28 27 14 11 5 1 0 1
29 27 27 29 34 37 36 36 36 30 25 29 31 32 31 26 27 28 32 33 32 32 32 35 38 36 32 21 21 13 18 21 19 14 24 28 26 21 13 10 8 6 5
30 26 26 26 25 22 21 22 20 23 25 24 27 30 24 24 23 22 24 18 21 30 22 19 15 24 29 40 36 26 32 19 19 21 35 28 29 25 17 16 13 10 9
22 23 21 21 24 27 23 25 26 26 28 29 30 31 29 24 23 25 25 23 25 19 23 26 33 37 44 44 43 43 43 42 44 34 38 38 36 25 19 23 19 15 14
21 20 19 21 24 25 26 29 30 30 31 34 32 32 33 25 28 32 24 24 27 28 24 21 18 19 24 33 39 55 64 70 58 53 66 38 37 34 29 28 30 23 20
17 19 18 21 26 30 32 36 36 34 36 37 36 35 32 28 27 29 33 25 30 30 29 21 20 26 29 30 29 35 36 39 48 47 46 38 49 21 32 35 47 31 25
13 17 21 21 27 32 34 40 37 38 36 36 32 30 28 31 32 29 27 33 33 38 28 35 34 30 34 33 36 37 32 31 31 39 53 63 69 53 63 58 46 38 33
13 18 21 25 28 33 34 39 38 38 34 30 29 25 39 38 31 34 36 31 31 36 28 27 33 31 37 37 37 36 36 31 27 31 37 45 47 46 44 49 43 43 39
16 19 20 25 26 33 35 37 36 31 28 28 29 26 27 35 35 36 29 32 42 33 31 36 39 35 41 33 37 39 41 39 38 34 35 35 41 38 38 39 47 41 41
15 19 21 23 30 37 33 31 28 27 27 26 26 37 48 38 31 35 34 34 38 30 27 33 31 26 34 36 35 40 35 38 33 40 37 43 35 40 45 48 45 38 39
15 17 24 27 32 32 30 30 29 29 27 24 30 26 45 37 30 29 30 34 33 30 29 29 27 31 27 31 31 34 35 42 37 33 38 44 40 36 51 44 36 43 44
13 19 23 27 32 28 27 30 33 26 24 18 29 33 30 27 28 29 29 30 28 32 31 32 27 28 30 31 27 26 32 34 34 39 38 35 44 39 42 39 38 43 43
14 17 23 25 27 26 31 28 31 26 20 30 24 27 31 26 30 28 28 28 30 31 28 30 27 26 26 23 25 23 16 15 25 32 31 34 38 49 41 40 35 35 27
11 17 21 22 32 22 31 28 30 28 28 23 24 27 30 30 28 32 26 24 19 19 20 22 20 20 20 20 21 24 26 21 11 13 20 17 19 28 33 37 36 34 27
13 20 20 20 26 27 25 27 25 27 23 23 27 28 31 30 33 28 28 27 23 19 19 17 18 19 19 16 16 13 13 18 22 15 19 24 30 39 41 32 30 22 20
16 21 23 17 28 30 25 23 23 25 24 23 23 22 31 30 36 31 28 34 26 25 22 20 19 16 15 9 11 6 4 9 14 18 18 32 28 32 20 31 20 18 17
Wind_Direction_850mb
102 116 119 104 95 101 113 124 128 135 139 155 317 311 300 297 312 337 353 13 42 61 77 93 96 91 95 101 111 119 117 112 102 92 77 83 96 98 98 98 80 90 90
101 102 114 113 100 95 113 116 114 108 62 5 342 335 355 28 50 64 75 85 86 87 93 96 96 98 111 117 119 110 109 103 95 85 83 77 104 103 114 122 121 97 101
98 101 91 95 99 107 105 99 62 27 16 23 18 17 24 51 85 96 83 74 77 86 98 110 111 104 121 130 123 107 105 92 89 77 74 94 82 94 107 117 88 78 89
83 85 87 85 85 82 81 96 93 59 25 18 34 65 106 137 134 122 111 100 96 92 100 113 118 117 131 136 132 118 105 92 96 84 71 102 71 84 80 78 66 63 62
78 77 80 76 71 67 63 54 43 40 38 39 64 72 91 148 165 167 153 146 127 108 102 111 131 140 150 154 152 137 116 98 94 61 118 99 118 77 74 79 71 78 118
78 73 80 70 66 64 70 68 70 55 48 27 10 47 92 157 181 184 188 188 174 137 118 124 130 158 166 165 175 159 134 110 99 91 83 157 138 64 79 85 88 71 220
80 80 78 71 64 64 61 66 73 78 61 55 44 345 303 261 239 227 225 225 224 240 236 162 154 166 183 202 207 199 176 138 111 206 194 164 208 48 32 38 33 25 352
79 70 71 64 51 49 58 52 44 36 33 15 350 349 330 279 264 264 260 256 252 255 256 264 255 237 227 230 232 230 213 179 136 214 223 231 293 5 5 5 1 358 346
71 62 55 64 47 34 45 37 32 28 13 4 359 345 335 330 314 289 275 268 268 266 266 264 263 263 258 255 257 251 239 221 208 246 225 244 267 319 338 348 356 359 356
66 67 67 68 71 69 40 38 22 11 4 2 347 340 348 355 345 315 310 279 270 269 270 270 272 272 270 267 265 262 254 241 230 263 248 244 272 312 333 341 360 22 55
63 58 57 49 46 36 29 26 13 10 5 356 338 320 297 267 270 289 296 276 273 276 272 272 270 273 272 275 284 265 254 258 263 265 264 248 262 292 309 306 320 345 131
63 56 53 49 34 25 28 22 21 10 4 3 0 353 344 325 301 286 269 283 285 278 274 270 268 265 268 269 286 299 265 250 266 275 299 264 274 278 272 268 262 249 235
72 67 54 41 37 41 12 14 357 352 348 345 341 342 335 318 313 325 322 300 293 283 283 271 253 250 229 228 233 252 244 255 250 269 265 260 265 262 256 256 254 251 230
65 62 53 40 34 23 19 5 357 344 344 336 333 336 329 320 298 293 286 282 292 292 300 302 276 266 258 247 244 248 249 242 236 244 243 234 225 218 244 246 244 238 219
63 58 42 27 22 12 4 357 349 340 332 333 327 325 325 322 298 266 264 281 280 280 281 278 283 293 302 288 276 263 263 257 254 262 244 221 231 231 224 235 232 234 219
48 35 23 12 9 5 356 349 342 331 327 324 322 318 324 318 310 309 270 277 277 273 254 254 272 286 286 283 282 289 292 276 259 241 241 248 246 269 281 251 225 216 217
26 14 8 357 352 349 347 338 334 326 320 323 320 326 313 297 305 300 297 293 278 269 268 276 279 278 280 276 272 262 266 270 268 254 246 242 250 266 250 266 260 239 225
2 4 356 348 344 339 335 333 327 323 328 326 324 313 310 307 304 302 293 275 286 273 262 259 269 275 277 274 271 269 266 251 256 250 247 245 239 234 240 235 234 233 212
9 5 0 352 341 335 335 333 335 330 330 327 325 323 315 317 311 291 290 291 275 269 264 273 269 267 270 271 270 264 256 241 257 258 242 251 228 219 226 239 228 225 210
18 8 1 347 337 344 341 338 338 337 333 331 320 317 315 314 308 306 298 297 297 293 280 273 274 272 277 267 279 271 265 241 239 234 234 238 234 225 224 227 222 205 197
19 6 354 348 341 352 350 346 340 335 331 329 332 330 328 327 326 313 304 293 297 301 298 290 276 279 273 267 272 268 257 254 238 233 245 217 228 224 220 220 203 194 188
10 360 352 348 345 351 351 347 337 327 334 337 331 330 335 331 330 316 304 296 289 284 284 276 282 273 276 266 271 274 267 257 233 224 238 220 215 212 221 209 189 190 180
360 358 352 349 347 347 349 347 347 356 341 341 339 342 338 340 341 335 319 303 293 290 282 284 291 284 280 275 271 260 267 240 229 221 213 208 212 218 205 185 189 178 168
360 353 349 348 350 347 348 355 354 352 346 339 339 339 354 335 345 350 345 340 314 302 284 294 302 297 291 286 279 269 245 263 234 191 205 200 199 191 173 166 177 171 176
1 355 350 353 347 347 353 353 357 351 347 342 349 347 337 350 356 356 354 346 342 334 326 320 326 313 305 291 295 291 266 250 266 244 180 169 173 169 165 176 157 167 186
355 354 351 355 341 350 354 342 353 351 349 345 343 348 345 353 356 357 9 13 9 346 322 319 321 335 321 302 314 282 320 242 248 245 193 171 151 153 161 174 173 220 173